Latest Weather Observations for Alice Springs Airport

IDD60801

Issued at 12:31 pm CST Sunday 24 May 2015 (issued every 30 minutes, with the page automatically refreshed every 10 minutes)

About weather observations | Map of weather stations | Latest weather observations for NT | Other Formats
Station Details ID: 015590 Name: ALICE SPRINGS AIRPORT Lat: -23.80 Lon: 133.89 Height: 546.0 m
Data from the previous 72 hours. | See also: Recent months at Alice Springs Airport
Date/Time
CST
Temp
°C
App
Temp
°C
Dew
Point
Rel
Hum
%
Delta-T
°C
Wind Press
QNH
hPa
Press
MSL
hPa
Rain
since 9 am
mm
Dir
 
Spd
km/h
Gust
km/h
Spd
kts
Gust
kts
24/12:00pm 18.4 13.2 -0.2 28 8.3 ENE 17 26 9 14 1023.4 1022.3 0.0
24/11:30am 18.4 13.1 -0.6 27 8.4 NE 17 28 9 15 1023.9 1022.7 0.0
24/11:00am 18.0 12.2 -0.3 29 8.1 ENE 20 30 11 16 1024.0 1022.8 0.0
24/10:30am 16.8 12.0 0.0 32 7.4 E 15 28 8 15 1024.7 1023.6 0.0
24/10:00am 15.4 10.9 0.0 35 6.7 E 13 19 7 10 1024.8 1023.7 0.0
24/08:30am 9.2 5.7 -1.0 49 4.1 ENE 7 13 4 7 1024.1 1022.9 0.0
24/08:00am 5.5 2.9 -1.6 60 2.7 W 2 6 1 3 1024.4 1023.3 0.0
24/07:30am 2.1 -1.8 -1.8 75 1.4 W 9 11 5 6 1024.5 1023.4 0.0
24/07:00am 2.5 0.2 -2.2 71 1.7 CALM 0 0 0 0 1023.9 1022.7 0.0
24/06:30am 2.1 -0.2 -2.4 72 1.6 CALM 0 0 0 0 1023.6 1022.5 0.0
24/05:30am 3.7 1.3 -3.3 60 2.5 CALM 0 2 0 1 1023.2 1022.1 0.0
24/05:00am 3.7 0.1 -3.3 60 2.5 NE 6 7 3 4 1023.0 1021.9 0.0
24/04:30am 3.5 -0.3 -4.0 58 2.6 S 7 9 4 5 1023.3 1022.2 0.0
24/04:00am 4.5 -0.5 -4.4 52 3.1 ENE 13 13 7 7 1023.0 1021.9 0.0
24/03:30am 3.9 1.5 -3.4 59 2.6 CALM 0 0 0 0 1023.3 1022.2 0.0
24/03:00am 4.7 2.2 -4.1 53 3.1 CALM 0 0 0 0 1023.3 1022.2 0.0
24/02:30am 5.3 1.8 -2.9 55 3.0 W 6 7 3 4 1023.5 1022.4 0.0
24/02:00am 5.0 1.8 -3.7 53 3.1 NW 4 9 2 5 1024.0 1022.8 0.0
24/01:30am 5.3 2.8 -4.0 51 3.3 CALM 0 0 0 0 1024.1 1022.9 0.0
24/01:00am 4.0 1.5 -4.4 54 2.9 CALM 0 0 0 0 1024.2 1023.1 0.0
24/12:30am 5.9 2.2 -3.1 52 3.3 WNW 7 9 4 5 1024.3 1023.2 0.0
24/12:00am 6.7 2.9 -3.7 47 3.8 W 7 11 4 6 1024.7 1023.6 0.0
 
Date/Time
CST
Temp
°C
App
Temp
°C
Dew
Point
Rel
Hum
%
Delta-T
°C
Wind Press
QNH
hPa
Press
MSL
hPa
Rain
since 9 am
mm
Dir
 
Spd
km/h
Gust
km/h
Spd
kts
Gust
kts
23/11:30pm 5.8 1.2 -4.0 49 3.5 W 11 13 6 7 1024.7 1023.6 0.0
23/11:00pm 6.8 4.0 -3.2 49 3.7 W 2 7 1 4 1024.3 1023.2 0.0
23/10:30pm 5.9 3.4 -3.8 50 3.5 CALM 0 0 0 0 1024.4 1023.3 0.0
23/10:00pm 6.7 4.3 -3.0 50 3.6 CALM 0 0 0 0 1024.4 1023.3 0.0
23/09:30pm 7.7 5.3 -3.3 45 4.1 CALM 0 0 0 0 1024.9 1023.8 0.0
23/09:00pm 8.7 6.2 -3.9 41 4.7 CALM 0 0 0 0 1024.6 1023.5 0.0
23/08:30pm 9.8 7.7 -1.1 46 4.4 CALM 0 6 0 3 1024.0 1022.8 0.0
23/08:00pm 11.2 7.3 -1.7 40 5.2 E 9 13 5 7 1023.9 1022.7 0.0
23/07:30pm 12.4 7.6 -2.6 35 6.0 ESE 13 13 7 7 1023.6 1022.5 0.0
23/07:00pm 13.6 9.1 -3.2 31 6.7 ESE 11 15 6 8 1023.4 1022.3 0.0
23/06:30pm 14.0 10.4 -2.0 33 6.6 E 7 9 4 5 1023.5 1022.4 0.0
23/06:00pm 15.3 11.3 -2.3 29 7.3 ENE 9 13 5 7 1023.5 1022.4 0.0
23/05:30pm 16.9 12.0 -3.6 24 8.4 E 13 19 7 10 1023.2 1022.1 0.0
23/05:00pm 17.5 11.7 -4.5 22 8.9 E 17 24 9 13 1022.9 1021.8 0.0
23/04:30pm 17.6 11.8 -4.7 21 9.0 E 17 24 9 13 1022.6 1021.5 0.0
23/04:00pm 17.9 12.2 -4.1 22 9.0 ESE 17 24 9 13 1022.8 1021.7 0.0
23/03:30pm 17.6 12.3 -3.4 23 8.7 E 15 22 8 12 1022.9 1021.8 0.0
23/03:00pm 17.7 12.1 -2.8 24 8.6 ESE 17 28 9 15 1023.0 1021.9 0.0
23/02:30pm 17.7 11.7 -2.8 24 8.6 E 19 28 10 15 1023.4 1022.3 0.0
23/02:00pm 16.7 11.2 -2.4 27 8.0 E 17 28 9 15 1023.9 1022.7 0.0
23/01:30pm 16.5 11.4 -2.0 28 7.8 ESE 15 20 8 11 1024.4 1023.3 0.0
23/01:00pm 15.8 10.3 -1.8 30 7.4 ESE 17 28 9 15 1024.8 1023.7 0.0
23/12:30pm 15.3 9.9 -1.6 31 7.1 E 17 28 9 15 1025.4 1024.3 0.0
23/12:00pm 14.3 8.5 -1.2 34 6.5 E 19 28 10 15 1025.8 1024.6 0.0
23/11:30am 14.2 8.2 -1.7 33 6.6 E 20 30 11 16 1026.1 1025.0 0.0
23/11:00am 13.3 6.5 -1.5 36 6.1 E 24 32 13 17 1026.8 1025.7 0.0
23/10:30am 12.4 5.3 -0.9 40 5.5 ENE 26 33 14 18 1027.1 1026.0 0.0
23/10:00am 11.9 4.5 -1.0 41 5.3 ENE 28 37 15 20 1027.1 1026.0 0.0
23/09:30am 11.0 4.0 -0.7 44 4.8 E 26 33 14 18 1027.3 1026.2 0.0
23/09:00am 9.6 5.0 -1.1 47 4.3 E 13 19 7 10 1027.1 1026.0 0.0
23/08:30am 7.2 4.7 -1.3 55 3.3 SW 2 6 1 3 1027.4 1026.4 0.0
23/08:00am 3.5 1.2 -2.6 64 2.2 CALM 0 6 0 3 1027.2 1026.1 0.0
23/07:30am 0.1 -3.7 -3.9 74 1.4 W 7 7 4 4 1027.1 1026.0 0.0
23/07:00am -1.2 -3.7 -4.4 79 1.0 CALM 0 0 0 0 1026.7 1025.6 0.0
23/06:30am -0.6 -3.0 -3.0 84 0.8 CALM 0 0 0 0 1026.4 1025.3 0.0
23/06:00am 0.8 -2.3 -3.0 76 1.4 SW 4 6 2 3 1026.3 1025.2 0.0
23/05:30am 0.4 - - - - SW 7 9 4 5 1026.5 1025.4 0.0
23/05:00am 0.6 - - - - W 7 9 4 5 1026.2 1025.1 0.0
23/04:30am 1.0 - - - - WNW 9 9 5 5 1026.2 1025.1 0.0
23/04:00am 1.0 - - - - CALM 0 0 0 0 1026.1 1025.0 0.0
23/03:30am 1.5 - - - - CALM 0 0 0 0 1026.0 1024.9 0.0
23/03:00am 2.4 -0.6 -2.0 73 1.6 W 4 7 2 4 1026.1 1025.0 0.0
23/02:30am 2.4 -0.2 -2.0 73 1.6 W 2 7 1 4 1026.1 1025.0 0.0
23/02:00am 2.6 -1.1 -3.1 66 2.0 WSW 7 11 4 6 1026.5 1025.4 0.0
23/01:30am 3.5 1.2 -2.3 66 2.1 CALM 0 0 0 0 1026.3 1025.2 0.0
23/01:00am 3.6 0.6 -2.2 66 2.1 S 4 7 2 4 1026.4 1025.3 0.0
23/12:30am 4.9 1.3 -2.4 59 2.7 SSW 7 9 4 5 1026.6 1025.5 0.0
23/12:00am 4.4 1.1 -1.5 65 2.2 WSW 6 7 3 4 1026.6 1025.5 0.0
 
Date/Time
CST
Temp
°C
App
Temp
°C
Dew
Point
Rel
Hum
%
Delta-T
°C
Wind Press
QNH
hPa
Press
MSL
hPa
Rain
since 9 am
mm
Dir
 
Spd
km/h
Gust
km/h
Spd
kts
Gust
kts
22/11:30pm 5.9 2.3 -2.4 55 3.1 ENE 7 9 4 5 1026.7 1025.6 0.0
22/11:00pm 6.8 2.9 -1.5 55 3.2 NE 9 11 5 6 1026.7 1025.6 0.0
22/10:30pm 7.3 3.9 -0.5 57 3.1 NE 7 9 4 5 1026.9 1025.8 0.0
22/10:00pm 8.7 5.3 -0.8 51 3.8 ESE 7 7 4 4 1027.2 1026.1 0.0
22/09:38pm 9.3 5.8 -1.2 48 4.2 ESE 7 9 4 5 1027.1 1026.0 0.0
22/09:30pm 9.3 5.4 -1.2 48 4.2 ESE 9 9 5 5 1027.1 1026.0 0.0
22/09:20pm 9.2 5.3 -1.7 46 4.3 SE 9 11 5 6 1027.0 1025.9 0.0
22/09:00pm 9.4 4.8 -1.4 47 4.3 SE 13 15 7 8 1027.1 1026.0 0.0
22/08:30pm 10.5 6.2 -1.5 43 4.8 SSE 11 13 6 7 1027.1 1026.0 0.0
22/08:00pm 11.9 7.6 -1.7 39 5.5 SE 11 15 6 8 1027.0 1025.9 0.0
22/07:30pm 12.5 7.8 -1.7 37 5.8 ESE 13 17 7 9 1026.6 1025.5 0.0
22/07:00pm 13.2 8.0 -2.7 33 6.4 ESE 15 26 8 14 1025.7 1024.5 0.0
22/06:30pm 13.9 8.3 -3.0 31 6.8 ESE 17 22 9 12 1025.5 1024.4 0.0
22/06:00pm 14.5 8.5 -3.1 29 7.1 ESE 19 26 10 14 1025.5 1024.4 0.0
22/05:30pm 14.9 9.2 -3.5 28 7.4 ESE 17 26 9 14 1025.7 1024.5 0.0
22/05:00pm 15.4 9.4 -3.4 27 7.6 SE 19 28 10 15 1025.9 1024.8 0.0
22/04:30pm 15.7 10.1 -2.8 28 7.6 SE 17 20 9 11 1025.7 1024.5 0.0
22/04:00pm 15.7 10.2 -2.4 29 7.5 SE 17 26 9 14 1025.8 1024.6 0.0
22/03:30pm 16.1 10.7 -1.6 29 7.5 SE 17 32 9 17 1025.7 1024.5 0.0
22/03:00pm 15.9 9.8 -2.4 28 7.6 ESE 20 30 11 16 1025.5 1024.4 0.0
22/02:30pm 15.3 9.8 -2.0 30 7.2 ESE 17 26 9 14 1025.9 1024.8 0.0
22/02:00pm 16.0 9.9 -2.6 28 7.7 ESE 20 28 11 15 1026.1 1025.0 0.0
22/01:30pm 14.9 9.1 -1.6 32 6.9 ESE 19 32 10 17 1026.4 1025.3 0.0
22/01:00pm 14.7 9.8 -0.2 36 6.4 ESE 15 26 8 14 1027.2 1026.1 0.0
22/12:30pm 14.7 9.0 -0.9 34 6.6 ESE 19 26 10 14 1027.2 1026.1 0.0
22/12:00pm 13.9 8.2 -0.5 37 6.1 ESE 19 26 10 14 1027.8 1026.7 0.0
22/11:30am 13.4 7.8 0.1 40 5.7 E 19 30 10 16 1028.2 1027.1 0.0
22/11:00am 11.7 4.7 -0.3 43 5.0 E 26 32 14 17 1028.7 1027.6 0.0
22/10:30am 11.6 4.6 -0.4 43 5.0 E 26 35 14 19 1028.9 1027.8 0.0
22/10:00am 10.8 3.4 -1.0 44 4.8 ESE 28 35 15 19 1029.3 1028.3 0.0
22/09:30am 10.8 4.5 -1.0 44 4.8 ESE 22 30 12 16 1029.7 1028.6 0.0
22/09:00am 9.6 4.2 -1.1 47 4.3 ESE 17 26 9 14 1029.1 1028.1 0.0
22/08:30am 7.0 3.3 -2.6 50 3.6 SE 7 11 4 6 1028.8 1027.7 0.0
22/08:00am 4.9 1.5 -2.1 60 2.6 S 6 9 3 5 1028.8 1027.7 0.0
22/07:30am 2.4 0.0 -3.0 67 1.9 CALM 0 0 0 0 1028.5 1027.4 0.0
22/07:00am 1.8 -1.9 -3.0 70 1.7 S 7 9 4 5 1028.2 1027.1 0.0
22/06:30am 2.5 -1.2 -2.9 67 1.9 S 7 7 4 4 1027.8 1026.7 0.0
22/06:00am 2.7 -1.0 -2.6 68 1.9 SSW 7 9 4 5 1027.5 1026.5 0.0
22/05:30am 2.5 -1.5 -2.2 71 1.7 S 9 9 5 5 1027.4 1026.4 0.0
22/05:00am 3.8 -0.2 -2.6 63 2.3 S 9 11 5 6 1027.2 1026.1 0.0
22/04:30am 2.6 -1.1 -2.8 67 1.9 S 7 7 4 4 1027.1 1026.0 0.0
22/04:00am 3.6 0.0 -1.8 68 2.0 S 7 9 4 5 1026.9 1025.8 0.0
22/03:30am 3.2 0.5 -2.7 65 2.1 WNW 2 7 1 4 1026.7 1025.6 0.0
22/03:00am 3.8 1.6 -1.6 68 2.0 CALM 0 0 0 0 1027.0 1025.9 0.0
22/02:30am 4.5 2.3 -1.3 66 2.2 CALM 0 0 0 0 1027.1 1026.0 0.0
22/02:00am 4.2 1.6 -1.4 67 2.1 ESE 2 6 1 3 1027.3 1026.2 0.0
22/01:30am 4.7 2.6 -0.8 67 2.1 CALM 0 0 0 0 1027.4 1026.4 0.0
22/01:00am 4.3 0.7 -1.9 64 2.3 SSE 7 7 4 4 1027.8 1026.7 0.0
22/12:30am 5.5 1.3 -0.7 64 2.4 SSE 11 11 6 6 1027.9 1026.8 0.0
22/12:00am 5.9 1.7 -0.8 62 2.6 SE 11 11 6 6 1028.0 1026.9 0.0
 
Date/Time
CST
Temp
°C
App
Temp
°C
Dew
Point
Rel
Hum
%
Delta-T
°C
Wind Press
QNH
hPa
Press
MSL
hPa
Rain
since 9 am
mm
Dir
 
Spd
km/h
Gust
km/h
Spd
kts
Gust
kts
21/11:30pm 6.7 2.8 -1.3 56 3.1 SE 9 11 5 6 1028.1 1027.0 0.0
21/11:00pm 6.5 2.3 -1.0 59 2.9 SE 11 13 6 7 1028.1 1027.0 0.0
21/10:30pm 6.5 1.9 -1.0 59 2.9 SSE 13 15 7 8 1028.3 1027.2 0.0
21/10:00pm 7.4 2.9 -0.4 57 3.1 SE 13 13 7 7 1028.4 1027.3 0.0
21/09:30pm 8.5 4.7 -0.4 53 3.6 ESE 9 11 5 6 1028.5 1027.4 0.0
21/09:00pm 9.0 5.3 0.2 54 3.6 SE 9 9 5 5 1028.4 1027.3 0.0
21/08:30pm 9.3 5.2 0.0 52 3.8 SE 11 11 6 6 1027.9 1026.8 0.0
21/08:00pm 10.3 6.2 -0.1 48 4.3 SSE 11 13 6 7 1027.5 1026.5 0.0
21/07:30pm 11.4 7.4 0.2 46 4.7 SE 11 13 6 7 1027.2 1026.1 0.0
21/07:00pm 13.2 8.8 0.1 40 5.6 SE 13 17 7 9 1026.6 1025.5 0.0
21/06:30pm 13.7 9.4 0.9 41 5.6 SE 13 17 7 9 1026.4 1025.3 0.0
21/06:00pm 15.1 10.0 0.5 37 6.4 SE 17 24 9 13 1026.0 1024.9 0.0
21/05:30pm 16.0 10.5 0.3 34 6.9 SE 19 26 10 14 1025.8 1024.6 0.0
21/05:00pm 16.7 11.1 0.9 34 7.1 SE 20 30 11 16 1025.3 1024.2 0.0
21/04:30pm 16.4 10.8 1.4 36 6.8 ESE 20 28 11 15 1025.0 1023.9 0.0
21/04:00pm 16.8 11.4 1.4 35 7.0 SSE 19 26 10 14 1025.1 1024.0 0.0
21/03:30pm 17.5 12.1 1.2 33 7.4 SSE 19 28 10 15 1025.3 1024.2 0.0
21/03:00pm 17.6 12.0 1.1 33 7.5 SSE 20 30 11 16 1025.2 1024.1 0.0
21/02:30pm 17.5 12.0 0.9 32 7.5 SE 19 30 10 16 1025.2 1024.1 0.0
21/02:00pm 16.5 11.8 0.9 34 7.0 SE 15 35 8 19 1025.9 1024.8 0.0
21/01:30pm 16.4 10.7 0.7 34 7.0 SE 20 32 11 17 1026.3 1025.2 0.0
21/01:00pm 15.9 10.8 0.8 36 6.7 SE 17 28 9 15 1026.8 1025.7 0.0

Other Formats:

Comma delimited format used in spreadsheet applications
http://www.bom.gov.au/fwo/IDD60801/IDD60801.94326.axf

JavaScript Object Notation format (JSON) in row-major order
http://www.bom.gov.au/fwo/IDD60801/IDD60801.94326.json